User: anonymous   Login
Location: Unspecified
(0.0000°N, 0.0000°E)
Time: 20:22:04
(UTC+00:00)
Language:

STARLINK-4347 - Orbit

View from above orbital plane
View from above orbital plane
View from above satellite
View from above satellite

Ground track
Ground track

The orbit is defined by the following mean orbital elements,

1 53076U          26145.41780902 +.00000000 +00000-0 +68503-3 0 00008
2 53076  97.4458 325.3176 0000988 106.0030 254.1306 15.05608053    06
Epoch (UTC): 25 May 2026 10:01:38
Eccentricity: 0.0000988
inclination: 97.4458°
perigee height: 549 km
apogee height: 550 km
right ascension of ascending node: 325.3176°
argument of perigee: 106.0030°
revolutions per day: 15.05608053
mean anomaly at epoch: 254.1306°

The dashed part of the orbit path shows where the satellite is in the earth's shadow,  

DLR